Regional Weather Roundup
Issued by NWS Jackson, KY

Home | Current Version | Previous Version | Graphics & Text | Print | Product List | Glossary On
Versions: 1 2 3 4 5 6 7 8 9 10 11 12 13 14 15 16 17 18 19 20 21 22 23 24 25 26 27 28 29 30 31 32 33 34 35 36 37 38 39 40 41 42 43 44 45 46 47 48 49 50
000
ASUS43 KJKL 261711
RWRJKL

EAST KENTUCKY HOURLY WEATHER ROUNDUP
NATIONAL WEATHER SERVICE JACKSON KY
1200 PM EST MON JAN 26 2015

NOTE: "FAIR" INDICATES FEW OR NO CLOUDS BELOW 12,000 FEET WITH
NO SIGNIFICANT WEATHER AND/OR OBSTRUCTIONS TO VISIBILITY.

* THESE REPORTS ARE NOT UNDER NWS QUALITY CONTROL AND MAY NOT
  REPORT WEATHER SUCH AS PRECIPITATION AND FOG.

KYZ079-080-083-085-087-088-110-112-115-119-120-261800
...EASTERN KENTUCKY...

CITY           SKY/WX    TMP DP  RH WIND       PRES   REMARKS
JACKSON        LGT SNOW  25  22  88 W9G20     29.84S FOG     WCI  15
LONDON         CLOUDY    27  21  78 W13       29.90R WCI  16
SOMERSET*      CLOUDY    28  23  80 NW14      29.96R WCI  17
MONTICELLO*    CLOUDY    29  26  88 NW12      29.97R WCI  19
MIDDLESBORO*   CLOUDY    30  27  88 W8        29.87R WCI  23
HARLAN APT*    CLOUDY    30  27  86 NW5       29.82S WCI  25
BLACK MTN*       N/A     21  21 100 N7          N/A  WCI  13
PIKEVILLE APT* LGT SNOW  27  27 100 W13       29.80R WCI  16
BIG SANDY*     LGT SNOW  27  26  94 NW6       29.82R WCI  21
MOREHEAD APT*  PTSUNNY   23  19  86 NW14      29.90S WCI  11
$$

KYZ035-036-041-042-044-050-067-078-099-261800
...CENTRAL KENTUCKY...

CITY           SKY/WX    TMP DP  RH WIND       PRES   REMARKS
MT STERLING*   CLOUDY    25  21  86 NW12G17   29.91S WCI  14
FLEMING/MASON* CLOUDY    23  19  83 NW9       29.90S WCI  13
DANVILLE*      CLOUDY    27  23  86 NW10      29.94F WCI  17
RICHMOND*      CLOUDY    25  21  86 NW14      29.92R WCI  13
LEXINGTON      CLOUDY    25  21  85 W10       29.91F WCI  15
FRANKFORT      CLOUDY    27  20  75 NW9       29.92F WCI  18
$$

KYZ091>093-OHZ055-061-077-WVZ005-015-034-035-042-261800
...SOUTHERN OHIO/WEST VIRGINIA...

CITY           SKY/WX    TMP DP  RH WIND       PRES   REMARKS
COVINGTON      PTSUNNY   25  17  72 NW10      29.91F WCI  15
COLUMBUS       CLOUDY    21  16  81 NW17      29.85R WCI   7
DAYTON         PTSUNNY   17  11  77 NW8       29.90F WCI   7
WILMINGTON     CLOUDY    19  13  77 NW13      29.87F WCI   6
HUNTINGTON     MIX PCPN  26  23  88 W9G17     29.82S WCI  17
CHARLESTON     LGT SNOW  30  27  88 W13G20    29.76R VSB 1   WCI  20
PINEVILLE*     MIX PCPN  40  39  97 MISG      29.74R
BECKLEY        LGT RAIN  37  34  89 W5        29.64S WCI  33
BLUEFIELD      LGT RAIN  38  33  82 W10       29.64F WCI  31
$$

VAZ002-007-008-TNZ017-027-036-066-071-261800
...SOUTHWEST VIRGINIA/EAST TENNESSEE...

CITY           SKY/WX    TMP DP  RH WIND       PRES   REMARKS
WISE*          LGT SNOW  32  30  93 W14G20    29.72S WCI  22
JONESVILLE*    CLOUDY    32  27  80 W7        29.82S WCI  26
ABINGDON*      LGT RAIN  37  36  94 W5        29.70S WCI  34
BRISTOL        CLOUDY    39  35  86 W14       29.73S WCI  31
OAK RIDGE      CLOUDY    38  30  73 CALM      29.88R
CROSSVILLE     CLOUDY    29  27  92 NW13G21   29.89R FOG     WCI  19
NASHVILLE      CLOUDY    34  29  82 NW7       30.02F WCI  28
$$

...KEY TO REMARKS...
VSB - VISIBILITY IN MILES
WCI - WIND CHILL INDEX
HX  - HEAT INDEX

$$



USA.gov is the U.S. government's official web portal to all federal, state and local government web resources and services.